Weather in Kananga

Democratic Republic of the Congo     5°55′12″S   22°24′55″E
temp.,
°C
wind,
m/s
gust,
m/s
humid.,
%
clouds,
%
prec.,
mm/h
press.,
hPa
HPBL,
m
26 june, sun
sun2601:00+20s234551 0.0 101259
04:00+18s274821 0.0 1013141
07:00+22sse2104030 0.0 1014265
10:00+30ese452488 0.0 10141382
13:00+34ese332017 0.0 10102891
16:00+33e332064 0.0 10093013
19:00+25ese25315 0.0 101271
22:00+24se23315 0.0 101247
27 june, mon
mon2701:00+22se3113535 0.0 1012246
04:00+19sse274369 0.0 1012129
07:00+23se312375 0.0 1014354
10:00+32se461955 0.0 10131810
13:00+34ese431788 0.0 10103076
16:00+33ese341920 0.0 10102947
19:00+25e373042 0.0 101296
22:00+23sse25346 0.0 101385
28 june, tue
tue2801:00+21se2113936 0.0 1012229
04:00+20se264038 0.0 1013144
07:00+23se3133576 0.0 1014498
10:00+30se582359 0.0 10141357
13:00+34se441975 0.0 10112645
16:00+33se342013 0.0 10102813
19:00+25ese22335 0.0 101240
22:00+22sse25383 0.0 101374
29 june, wed
wed2901:00+20se28410 0.0 1013152
04:00+19sse25455 0.0 1013102
07:00+22sse311417 0.0 1015311
10:00+30se462564 0.0 10141427
13:00+34se332015 0.0 10102624
16:00+33se332252 0.0 10092897
19:00+25ese26365 0.0 101192
22:00+22s24415 0.0 101266
30 june, thu
thu3001:00+21se224392 0.0 101250
04:00+22sse273921 0.0 1012212
07:00+23se38405 0.0 1014213
10:00+32se352556 0.0 10131951
13:00+33ese3223100 0.0 10102938
16:00+29n1131100 0.0 100915
19:00+27se113491 0.0 101116
22:00+24ese274138 0.0 1013131